Location: Camp Crooked Creek
(37.9149°N, 85.6607°W)
Time: 06:35:53
(UTC-04:00)

Daily predictions for brighter satellites

Satellite Brightness Start Highest point End
(mag) Time Altitude Azimuth Time Altitude Azimuth Time Altitude Azimuth
Resurs 1-3 4.4 21:35:29 10° S 21:39:46 54° W 21:44:05 10° NNW
Cosmos 1340 Rocket 3.3 21:39:31 10° SSE 21:43:15 39° E 21:47:03 10° NNE
Cosmos 1934 Rocket 4.1 21:39:47 10° N 21:45:57 79° W 21:52:01 10° S
Cosmos 1980 3.8 21:41:07 10° NNW 21:46:50 86° WSW 21:52:31 10° SSE
Cosmos 1954 Rocket 4.0 21:41:46 10° SSW 21:46:59 88° ESE 21:52:11 10° NNE
Meteor 2-5 Rocket 4.3 21:41:18 10° SSW 21:47:05 64° W 21:52:46 10° N
ATLAS 5 CENTAUR R/B 2.0 21:42:46 10° S 21:47:06 43° ESE 21:51:45 10° NE
Spot 1 4.1 21:43:25 10° SSE 21:47:24 57° ENE 21:51:30 10° N
SJ-11-01 4.3 21:46:32 10° SSE 21:51:15 76° ENE 21:56:01 10° N
Cosmos 1850 Rocket 4.4 21:46:57 10° S 21:51:48 42° ESE 21:56:40 10° NNE
Lacrosse 5 4.1 21:49:51 10° NNW 21:52:59 16° NNE 21:56:07 10° ENE
Cosmos 2084 3.9 21:49:45 10° S 21:53:27 34° ESE 21:57:00 10° NE
Cosmos 614 Rocket 4.0 21:49:06 10° S 21:54:16 68° ESE 21:59:27 10° NNE
YAOGAN 6 2.9 21:51:25 10° SSE 21:54:55 51° ENE 21:58:30 10° N
Cosmos 1605 Rocket 4.0 21:50:03 10° N 21:56:20 85° E 22:02:40 10° S
Cosmos 2237 Rocket 2.4 21:51:35 10° NNW 21:57:13 77° WSW 22:02:49 10° SSE
Helios 1A 2.9 21:53:19 10° SSE 21:57:27 88° E 22:01:38 10° NNW
CZ-4B DEB 2.6 21:54:59 10° SSE 21:57:55 62° ENE 22:00:51 10° N
Helios 1B rocket 2.4 21:54:06 10° NNE 21:58:16 89° ESE 22:02:24 10° SSW
USA 234 3.5 21:54:41 10° NE 22:00:58 48° SE 22:07:12 10° SSW
CZ-3B R/B 3.8 21:59:03 10° SSW 22:01:32 41° ESE 22:08:01 10° NE
Cosmos 1842 Rocket 3.7 21:58:08 10° N 22:02:32 79° W 22:06:52 10° S
Meteor 2-15 Rocket 4.4 21:56:31 10° S 22:02:33 77° E 22:08:38 10° N
Atlas Centaur 2 2.3 22:01:35 10° WSW 22:04:33 24° S 22:06:40 15° SE
H-2A R/B 3.7 22:00:52 10° ESE 22:04:36 20° ENE 22:08:24 10° NNE
ERS-1 Rocket 3.3 22:01:42 11° SE 22:06:24 49° ENE 22:11:16 10° N
Cosmos 2227 Rocket 3.5 22:04:44 10° SW 22:10:07 45° WNW 22:15:33 10° N
Cosmos 1818 4.1 22:06:48 10° NNW 22:12:03 46° NE 22:16:16 15° ESE
Meteor 1-24 Rocket 4.3 22:06:37 10° SSW 22:12:31 64° W 22:18:16 10° N
Cosmos 1727 Rocket 4.2 22:06:37 10° S 22:12:55 82° W 22:19:19 10° N
Lacrosse 4 Rocket 3.9 22:09:36 10° WSW 22:13:15 28° NW 22:16:59 10° N
Cosmos 1674 3.0 22:12:38 12° SSE 22:15:56 43° E 22:19:32 10° NNE
Cosmos 1741 Rocket 4.0 22:10:43 10° S 22:15:59 72° ESE 22:21:18 10° NNE
Cosmos 1908 3.8 22:13:58 10° N 22:17:39 39° E 22:20:03 18° SE
Cosmos 1184 Rocket 3.7 22:15:55 10° SSW 22:19:11 51° W 22:22:29 10° N
SL-16 R/B 2.3 22:15:03 10° NNW 22:20:42 70° ENE 22:25:10 17° SSE
ARGOS 3.6 22:20:18 16° SE 22:24:19 45° ENE 22:29:27 10° N
Cosmos 1408 Rocket 4.2 22:23:35 18° SSE 22:26:13 36° E 22:30:10 10° NNE
KORONAS-FOTON 4.4 22:24:13 19° SSE 22:26:27 38° E 22:29:59 10° NNE
MetOp-A 4.2 22:22:20 15° SSE 22:26:39 62° ENE 22:31:56 10° N
NOSS 3-4 (A) 4.0 22:20:10 10° NW 22:27:17 73° WSW 22:33:43 15° SSE
NOSS 3-4 (C) 4.0 22:20:16 10° NW 22:27:23 73° WSW 22:33:47 15° SSE
Cosmos 1356 Rocket 3.4 22:27:25 11° S 22:31:21 66° E 22:35:37 10° NNE
Cosmos 1076 Rocket 3.5 22:27:30 10° S 22:31:45 72° E 22:36:07 10° NNE
Tiangong 1 2.4 22:30:55 10° W 22:33:31 35° N 22:36:07 10° ENE
Terra 3.6 22:36:22 14° E 22:38:24 18° ENE 22:41:35 10° NNE
Cosmos 2333 Rocket 4.3 22:36:44 10° NW 22:40:50 21° W 22:44:54 10° SSW
Okean 3 Rocket 4.1 22:38:27 10° SSW 22:42:54 60° W 22:47:21 10° N
Cosmos 2016 Rocket 4.2 22:37:34 10° N 22:43:43 55° E 22:47:32 23° SSE
Cosmos 2221 2.9 22:40:57 10° NNW 22:45:18 64° W 22:48:40 16° S
NOAA 11 4.3 22:46:09 17° S 22:50:26 72° WSW 22:55:52 10° NNW
Cosmos 2208 Rocket 4.0 22:45:46 10° NNW 22:51:07 88° WSW 22:54:24 25° SSE
Cosmos 2227 4.1 22:47:16 10° SSW 22:52:58 70° ESE 22:58:40 10° NNE
Cosmos 2151 4.4 22:54:01 21° E 22:54:14 21° E 22:57:27 10° NE
RESURS DK-1 3.3 22:54:14 10° N 22:58:04 34° ENE 22:59:21 28° E
SL-08 RB Rocket 3.6 22:56:03 30° SSE 22:58:16 77° ENE 23:02:52 10° N
SPOT 1/Viking Rocket 3.6 22:56:35 29° SE 22:59:09 64° ENE 23:04:15 10° N
YAOGAN 11 4.1 22:58:18 29° S 23:00:37 85° W 23:05:10 10° NNW
Cosmos 1242 Rocket 3.0 22:57:09 10° NNW 23:00:49 59° W 23:02:30 29° SSW
Cosmos 1766 Rocket 3.6 22:58:37 20° SSW 23:01:35 79° W 23:05:56 10° N
USA 245 3.0 23:03:34 45° S 23:04:27 72° WSW 23:08:16 10° NNW
Meteor 2-2 Rocket 4.4 22:58:44 10° N 23:04:27 59° E 23:07:11 31° SE
Cosmos 1570 Rocket 4.5 23:00:25 10° NNW 23:05:38 57° WSW 23:08:43 24° S
EO 1 Delta rocket 3.8 23:04:00 33° SSE 23:06:06 69° E 23:10:41 10° N
Milstar 3 Cent rocket 4.3 23:03:34 10° WSW 23:11:13 40° S 23:18:44 25° SE
SL-14 R/B 3.2 23:10:43 48° SSE 23:11:36 65° E 23:15:32 10° NNE
Cosmos 1328 Rocket 3.7 23:07:33 10° N 23:11:50 56° E 23:12:50 44° SE
Cosmos 1763 Rocket 4.3 23:08:18 10° N 23:13:02 37° ENE 23:14:35 30° ESE
Cosmos 2228 Rocket 3.4 23:08:48 10° N 23:13:18 54° E 23:14:28 42° SE
Cosmos 1515 Rocket 4.0 23:11:13 10° N 23:15:21 43° E 23:16:02 39° ESE
Cosmos 1328 3.7 23:15:50 50° SSE 23:16:47 74° E 23:20:49 10° N
Cosmos 1743 Rocket 3.5 23:16:54 47° SSE 23:18:01 68° E 23:22:19 10° NNE
H-2A R/B 3.0 23:17:20 30° E 23:18:04 32° ENE 23:21:52 10° N
Cosmos 2263 Rocket 2.6 23:21:43 38° SE 23:22:38 41° ESE 23:27:50 10° NE
Cosmos 1151 Rocket 3.6 23:20:14 10° N 23:24:24 41° E 23:24:51 40° E
Cosmos 1300 2.5 23:20:44 10° N 23:24:34 84° E 23:25:01 68° SSE
Delta 2 Rocket 4.4 23:19:11 10° SW 23:24:35 42° SSE 23:25:01 41° SSE
Cosmos 1626 3.5 23:25:43 27° ENE 23:25:43 27° ENE 23:28:11 10° NNE
SL-19 R/B 4.4 23:24:18 10° NNE 23:29:31 52° ESE 23:30:49 43° SE
SPOT 5 3.7 23:28:20 26° SSW 23:30:37 43° W 23:35:24 10° NNW
ATLAS 5 CENTAUR R/B 4.3 23:28:13 10° W 23:31:59 23° NW 23:36:00 10° N
Cosmos 1726 2.6 23:29:20 10° NNW 23:32:55 53° W 23:33:27 48° SW
IGS 5A 3.5 23:33:58 58° ESE 23:34:21 61° ENE 23:38:27 10° N
Cosmos 2123 Rocket 4.1 23:30:34 23° SSW 23:34:38 71° W 23:40:50 10° N
OAO 1 Rocket 4.4 23:30:12 10° WSW 23:35:31 65° S 23:36:51 47° ESE
Meteor 2-10 4.2 23:30:00 10° N 23:35:37 88° W 23:37:39 42° S
Lacrosse 5 2.0 23:31:46 10° NW 23:36:49 67° NE 23:38:09 47° ESE
Cosmos 468 Rocket 4.1 23:35:12 10° NNW 23:40:17 64° WSW 23:41:43 44° SSW
Cosmos 371 Rocket 3.2 23:38:43 10° NNW 23:43:33 90° ENE 23:44:22 62° SSE
H-2A R/B 2.7 23:41:25 32° SSW 23:43:33 51° W 23:48:49 10° NNW
USA 234 4.2 23:37:42 10° NE 23:43:55 48° NW 23:50:08 10° WSW
Cosmos 1503 Rocket 4.3 23:43:58 45° ESE 23:44:03 45° ESE 23:48:58 10° NNE
Abrixas rocket 3.9 23:44:32 10° NW 23:47:22 27° NNE 23:47:34 27° NNE
Cosmos 1603 3.9 23:42:08 10° NNW 23:47:43 64° WSW 23:49:18 44° SSW
